Location: Casilda
(33.0440°S, 61.1680°W)
Time: 08:51:37
(UTC-03:00)

ISS - Pass Details

Date: 07 August 2022
Orbit: 412 x 420 km, 51.6° (Epoch: 13 August)

Event Time Altitude Azimuth Distance (km) Brightness Sun altitude
Exits shadow 07:18:55 - 224° (SW) 1,840 -1.0 -7.1°
Reaches altitude 10° 07:19:41 10° 223° (SW) 1,525 -1.4 -7.0°
Maximum altitude 07:23:07 78° 137° (SE) 439 -3.6 -6.3°
Drops below altitude 10° 07:26:30 10° 49° (NE) 1,504 0.3 -5.6°
Sets 07:28:35 0° 48° (NE) 2,360 1.4 -5.2°
